Hilo, HI

9:11 AM HST on March 27, 2017 (GMT -1000)
Hilo International

Weather History for PHTO - January, 2013

Change the Weather History Date:

Wednesday, January 30, 2013

  Actual Average Record
Temperature  
Mean Temperature 73 °F 71 °F  
Max Temperature 78 °F 79 °F 87 °F (1980)
Min Temperature 67 °F 63 °F 58 °F (1994)
Degree Days  
Heating Degree Days 0 0  
Month to date heating degree days 0 0  
Since 1 July heating degree days 0 0  
Cooling Degree Days 8 6  
Month to date cooling degree days 196 191  
Year to date cooling degree days 196 191  
Growing Degree Days 20 (Base 50)    
Moisture  
Dew Point 67 °F    
Average Humidity 81    
Maximum Humidity 93    
Minimum Humidity 69    
Precipitation  
Precipitation 0.03 in 0.33 in 5.17 in (1969)
Month to date precipitation 8.31 8.93  
Year to date precipitation 8.31 8.93  
Snow  
Snow 0.00 in - - ()
Month to date snowfall 0.0  
Since 1 July snowfall 0.0  
Snow Depth 0.00 in    
Sea Level Pressure  
Sea Level Pressure 30.03 in    
Wind  
Wind Speed 4 mph (SE)    
Max Wind Speed 15 mph    
Max Gust Speed 19 mph    
Visibility 10 miles    
Events Rain    
T = Trace of Precipitation, MM = Missing Value Source: NWS Daily Summary

Daily Weather History Graph

Daily Weather History Graph

Search for Another Location

Airport or City:

Trip Planner

Search our weather history database for the weather conditions in past years. The results will help you decide how hot, cold, wet, or windy it might be!

Date:

Astronomy

Jan. 30, 2013 Rise Set
Actual Time 6:55 AM HST 6:11 PM HST
Civil Twilight 6:32 AM HST 6:34 PM HST
Nautical Twilight 6:06 AM HST 7:01 PM HST
Astronomical Twilight 5:40 AM HST 7:27 PM HST
Moon 9:39 PM HST (1/30) 9:06 AM HST (1/30)
Length of Visible Light 12h 01m
Length of Day
11h 15m
Waning Gibbous, 86% of the Moon is Illuminated
Jan 30
Waning Gibbous
Feb 3
Last Quarter
Feb 9
New
Feb 17
First Quarter
Feb 25
Full

Hourly Weather History & Observations

Time (HST) Temp. Dew Point Humidity Pressure Visibility Wind Dir Wind Speed Gust Speed Precip Events Conditions
12:53 AM 68.0 °F 64.9 °F 90% 30.01 in 10.0 mi Calm Calm - N/A   Overcast
1:53 AM 68.0 °F 64.9 °F 90% 30.01 in 10.0 mi Calm Calm - N/A   Overcast
2:53 AM 66.9 °F 64.0 °F 90% 30.00 in 10.0 mi ESE 3.5 mph - N/A   Overcast
3:53 AM 68.0 °F 64.9 °F 90% 30.00 in 10.0 mi WSW 3.5 mph - N/A   Overcast
4:53 AM 68.0 °F 64.9 °F 90% 30.00 in 10.0 mi SW 4.6 mph - N/A   Overcast
5:53 AM 66.9 °F 64.0 °F 90% 30.01 in 10.0 mi SSW 3.5 mph - N/A   Overcast
6:53 AM 66.9 °F 64.0 °F 90% 30.03 in 10.0 mi Calm Calm - N/A   Overcast
7:53 AM 69.1 °F 64.9 °F 87% 30.05 in 10.0 mi Calm Calm - N/A   Mostly Cloudy
8:53 AM 72.0 °F 64.9 °F 78% 30.06 in 10.0 mi Calm Calm - N/A   Mostly Cloudy
9:53 AM 75.9 °F 66.9 °F 74% 30.06 in 10.0 mi Calm Calm - N/A   Mostly Cloudy
10:53 AM 75.9 °F 66.0 °F 71% 30.06 in 10.0 mi WNW 6.9 mph - N/A   Mostly Cloudy
11:53 AM 77.0 °F 66.9 °F 71% 30.04 in 10.0 mi SSE 8.1 mph - N/A   Mostly Cloudy
12:41 PM 77.0 °F 66.9 °F 71% 30.03 in 10.0 mi SSE 8.1 mph - N/A   Overcast
12:53 PM 77.0 °F 66.9 °F 71% 30.02 in 10.0 mi ESE 10.4 mph - N/A   Overcast
1:00 PM 77.0 °F 66.9 °F 71% 30.02 in 10.0 mi ESE 9.2 mph - N/A   Overcast
1:08 PM 77.0 °F 66.9 °F 71% 30.01 in 10.0 mi East 10.4 mph - N/A   Overcast
1:53 PM 75.0 °F 66.9 °F 76% 30.00 in 10.0 mi ESE 13.8 mph - N/A   Overcast
2:33 PM 73.9 °F 68.0 °F 82% 29.99 in 10.0 mi ESE 10.4 mph - 0.00 in   Overcast
2:53 PM 73.9 °F 66.9 °F 79% 29.99 in 10.0 mi ESE 9.2 mph - 0.00 in   Overcast
3:53 PM 73.9 °F 66.9 °F 79% 29.99 in 10.0 mi ESE 3.5 mph - N/A   Overcast
4:24 PM 73.0 °F 68.0 °F 84% 30.01 in 9.0 mi NW 5.8 mph - 0.00 in Rain Light Rain
4:53 PM 72.0 °F 68.0 °F 87% 30.01 in 7.0 mi NNW 10.4 mph - 0.02 in Rain Light Rain
5:05 PM 72.0 °F 68.0 °F 87% 30.01 in 10.0 mi North 5.8 mph - 0.00 in Rain Light Rain
5:53 PM 71.1 °F 68.0 °F 90% 30.02 in 10.0 mi North 4.6 mph - 0.01 in   Overcast
6:53 PM 71.1 °F 66.9 °F 87% 30.03 in 10.0 mi NW 3.5 mph - N/A   Overcast
7:53 PM 71.1 °F 68.0 °F 90% 30.05 in 10.0 mi Calm Calm - N/A   Overcast
8:33 PM 71.1 °F 68.0 °F 90% 30.06 in 10.0 mi Calm Calm - N/A   Overcast
8:53 PM 71.1 °F 66.9 °F 87% 30.06 in 10.0 mi WSW 3.5 mph - N/A   Overcast
9:53 PM 71.1 °F 68.0 °F 90% 30.07 in 10.0 mi Calm Calm - N/A   Overcast
10:53 PM 70.0 °F 66.9 °F 90% 30.06 in 10.0 mi Calm Calm - N/A   Overcast
11:53 PM 70.0 °F 66.9 °F 90% 30.05 in 10.0 mi Calm Calm - N/A   Overcast